Sct Santiago — V7NF7 — position and weather

sailwx.info

Track history (hours):
 
Tides and Currents Weather Stations Pressure Air Temp Water Temp Dewpoint Dewpoint Depression Visibility Wind Speed Wind Dir Waves Ship Positions

Sct Santiago

Last reported at 2014-Nov-28 03:30 UTC. Time now 2014-Nov-28 22:49 UTC.
Position N 37°07' E 023°54'.

Length 294 m; draft 12.4 m.

Type: Cargo ship. MMSI: 538002953.

Date/timePositionNaut miles runAvg speedWind from/ knotsBaromVisibWave heightAir tempDewpointWater temp
2014-Nov-28 03:30N 37°07' E 023°54'1919.8
2014-Nov-28 02:33N 37°20' E 024°10'2020.0
2014-Nov-28 01:32N 37°35' E 024°27'1919.8
2014-Nov-28 00:33N 37°54' E 024°35'2119.1
2014-Nov-27 23:26N 38°13' E 024°48'  
2014-Nov-24 20:07N 40°26' E 029°05'2613.9
2014-Nov-24 18:16N 40°45' E 028°42'8 0.2
2014-Nov-23 06:27N 40°53' E 028°40'15213.7
2014-Nov-22 19:19N 39°40' E 025°45'12119.7
2014-Nov-22 13:09N 37°52' E 024°35'1219.9
2014-Nov-22 12:33N 37°40' E 024°30'1919.6
2014-Nov-22 11:33N 37°25' E 024°15'2019.8
2014-Nov-22 10:33N 37°10' E 023°59'2619.9
2014-Nov-22 09:14N 36°50' E 023°37'1419.8
2014-Nov-22 08:31N 36°39' E 023°27'43719.6
2014-Nov-21 10:13N 36°32' E 014°22'1420.1
2014-Nov-21 09:32N 36°35' E 014°06'2020.2
2014-Nov-21 08:34N 36°40' E 013°42'2020.3
2014-Nov-21 07:34N 36°45' E 013°18'4020.0
2014-Nov-21 05:33N 36°54' E 012°29'19919.3
2014-Nov-20 19:13N 37°17' E 008°21'2219.9
2014-Nov-20 18:08N 37°17' E 007°53'1219.5
2014-Nov-20 17:31N 37°16' E 007°38'6119.4
2014-Nov-20 14:21N 37°17' E 006°21'6620.2
2014-Nov-20 11:05N 37°11' E 004°58'1519.9
2014-Nov-20 10:19N 37°10' E 004°39'2120.2
2014-Nov-20 09:16N 37°09' E 004°13'14820.7
2014-Nov-20 02:08N 36°47' E 001°10'1420.6
2014-Nov-20 01:27N 36°45' E 000°52'2020.1
2014-Nov-20 00:27N 36°41' E 000°28'3820.1
2014-Nov-19 22:32N 36°35' W 000°20'2620.3
2014-Nov-19 21:16N 36°31' W 000°52'3820.4
2014-Nov-19 19:24N 36°26' W 001°38'3619.5
2014-Nov-19 17:32N 36°21' W 002°23'14020.1
2014-Nov-19 10:34N 35°60' W 005°15'21015.8
2014-Nov-18 21:15N 37°30' W 009°13'1419.3
2014-Nov-18 20:32N 37°41' W 009°03'1717.5
2014-Nov-18 19:33N 37°55' W 008°50'1 1.1
2014-Nov-18 18:30N 37°56' W 008°51'0 0.0
2014-Nov-18 17:33N 37°56' W 008°51'0 0.0
2014-Nov-18 16:33N 37°56' W 008°51'0 0.0
2014-Nov-18 15:33N 37°56' W 008°51'0 0.0
2014-Nov-18 14:33N 37°56' W 008°51'0 0.0
2014-Nov-18 13:33N 37°56' W 008°51'0 0.0
2014-Nov-18 12:33N 37°56' W 008°51'0 0.0
2014-Nov-18 11:33N 37°56' W 008°51'0 0.0
2014-Nov-18 10:33N 37°56' W 008°51'0 0.0
2014-Nov-18 09:33N 37°56' W 008°51'0 0.0
2014-Nov-18 08:30N 37°56' W 008°51'0 0.0
2014-Nov-18 07:33N 37°56' W 008°51'0 0.0
2014-Nov-18 06:33N 37°56' W 008°51'1 0.9
2014-Nov-18 05:33N 37°55' W 008°50'6 6.4
2014-Nov-18 04:33N 37°57' W 008°58'1615.9
2014-Nov-18 03:33N 38°06' W 009°14'  
Track history (hours):
 
Tides and Currents Weather Stations Pressure Air Temp Water Temp Dewpoint Dewpoint Depression Visibility Wind Speed Wind Dir Waves Ship Positions

Sct Santiago

Last reported at 2014-Nov-28 03:30 UTC. Time now 2014-Nov-28 22:49 UTC.
Position N 37°07' E 023°54'.

Length 294 m; draft 12.4 m.

Type: Cargo ship. MMSI: 538002953.

Date/timePositionNaut miles runAvg speedWind from/ knotsBaromVisibWave heightAir tempDewpointWater temp
2014-Nov-28 03:30N 37°07' E 023°54'1919.8
2014-Nov-28 02:33N 37°20' E 024°10'2020.0
2014-Nov-28 01:32N 37°35' E 024°27'1919.8
2014-Nov-28 00:33N 37°54' E 024°35'2119.1
2014-Nov-27 23:26N 38°13' E 024°48'  
2014-Nov-24 20:07N 40°26' E 029°05'2613.9
2014-Nov-24 18:16N 40°45' E 028°42'8 0.2
2014-Nov-23 06:27N 40°53' E 028°40'15213.7
2014-Nov-22 19:19N 39°40' E 025°45'12119.7
2014-Nov-22 13:09N 37°52' E 024°35'1219.9
2014-Nov-22 12:33N 37°40' E 024°30'1919.6
2014-Nov-22 11:33N 37°25' E 024°15'2019.8
2014-Nov-22 10:33N 37°10' E 023°59'2619.9
2014-Nov-22 09:14N 36°50' E 023°37'1419.8
2014-Nov-22 08:31N 36°39' E 023°27'43719.6
2014-Nov-21 10:13N 36°32' E 014°22'1420.1
2014-Nov-21 09:32N 36°35' E 014°06'2020.2
2014-Nov-21 08:34N 36°40' E 013°42'2020.3
2014-Nov-21 07:34N 36°45' E 013°18'4020.0
2014-Nov-21 05:33N 36°54' E 012°29'19919.3
2014-Nov-20 19:13N 37°17' E 008°21'2219.9
2014-Nov-20 18:08N 37°17' E 007°53'1219.5
2014-Nov-20 17:31N 37°16' E 007°38'6119.4
2014-Nov-20 14:21N 37°17' E 006°21'6620.2
2014-Nov-20 11:05N 37°11' E 004°58'1519.9
2014-Nov-20 10:19N 37°10' E 004°39'2120.2
2014-Nov-20 09:16N 37°09' E 004°13'14820.7
2014-Nov-20 02:08N 36°47' E 001°10'1420.6
2014-Nov-20 01:27N 36°45' E 000°52'2020.1
2014-Nov-20 00:27N 36°41' E 000°28'3820.1
2014-Nov-19 22:32N 36°35' W 000°20'2620.3
2014-Nov-19 21:16N 36°31' W 000°52'3820.4
2014-Nov-19 19:24N 36°26' W 001°38'3619.5
2014-Nov-19 17:32N 36°21' W 002°23'14020.1
2014-Nov-19 10:34N 35°60' W 005°15'21015.8
2014-Nov-18 21:15N 37°30' W 009°13'1419.3
2014-Nov-18 20:32N 37°41' W 009°03'1717.5
2014-Nov-18 19:33N 37°55' W 008°50'1 1.1
2014-Nov-18 18:30N 37°56' W 008°51'0 0.0
2014-Nov-18 17:33N 37°56' W 008°51'0 0.0
2014-Nov-18 16:33N 37°56' W 008°51'0 0.0
2014-Nov-18 15:33N 37°56' W 008°51'0 0.0
2014-Nov-18 14:33N 37°56' W 008°51'0 0.0
2014-Nov-18 13:33N 37°56' W 008°51'0 0.0
2014-Nov-18 12:33N 37°56' W 008°51'0 0.0
2014-Nov-18 11:33N 37°56' W 008°51'0 0.0
2014-Nov-18 10:33N 37°56' W 008°51'0 0.0
2014-Nov-18 09:33N 37°56' W 008°51'0 0.0
2014-Nov-18 08:30N 37°56' W 008°51'0 0.0
2014-Nov-18 07:33N 37°56' W 008°51'0 0.0
2014-Nov-18 06:33N 37°56' W 008°51'1 0.9
2014-Nov-18 05:33N 37°55' W 008°50'6 6.4
2014-Nov-18 04:33N 37°57' W 008°58'1615.9
2014-Nov-18 03:33N 38°06' W 009°14'  

Dump ship's entire track history